Time,TemperatureF,DewpointF,PressureIn,WindDirection,WindDirectionDegrees,WindSpeedMPH,WindSpeedGustMPH,Humidity,HourlyPrecipIn,Conditions,Clouds,dailyrainin,SoftwareType,DateUTC
2013-09-27 00:12:00,68.0,59.0,29.67,NW,315,0.0,0.0,73,0.00,,,0.00,,2013-09-27 05:12:00,
2013-09-27 00:23:00,67.0,58.0,29.67,West,270,0.0,0.0,74,0.00,,,0.00,,2013-09-27 05:23:00,
2013-09-27 00:34:00,67.0,58.0,29.67,West,270,0.0,0.0,74,0.00,,,0.00,,2013-09-27 05:34:00,
2013-09-27 00:43:00,67.0,58.0,29.67,West,270,0.0,0.0,74,0.00,,,0.00,,2013-09-27 05:43:00,
2013-09-27 00:52:00,66.0,59.0,29.67,North,360,0.0,0.0,77,0.00,,,0.00,,2013-09-27 05:52:00,
2013-09-27 01:11:00,67.0,60.0,29.68,NW,315,0.0,0.0,79,0.00,,,0.00,,2013-09-27 06:11:00,
2013-09-27 01:22:00,66.0,59.0,29.68,NW,315,0.0,0.0,78,0.00,,,0.00,,2013-09-27 06:22:00,
2013-09-27 01:43:00,66.0,59.0,29.68,NW,315,0.0,0.0,79,0.00,,,0.00,,2013-09-27 06:43:00,
2013-09-27 01:52:00,66.0,59.0,29.68,NW,315,0.0,0.0,78,0.00,,,0.00,,2013-09-27 06:52:00,
2013-09-27 02:12:00,65.0,58.0,29.68,NW,315,0.0,0.0,79,0.00,,,0.00,,2013-09-27 07:12:00,
2013-09-27 02:22:00,65.0,59.0,29.69,NW,315,0.0,0.0,80,0.00,,,0.00,,2013-09-27 07:22:00,
2013-09-27 02:43:00,64.0,58.0,29.69,NW,315,0.0,0.0,81,0.00,,,0.00,,2013-09-27 07:43:00,
2013-09-27 02:53:00,64.0,59.0,29.68,North,360,0.0,0.0,83,0.00,,,0.00,,2013-09-27 07:53:00,
2013-09-27 03:11:00,64.0,59.0,29.70,North,360,0.0,0.0,83,0.00,,,0.00,,2013-09-27 08:11:00,
2013-09-27 03:22:00,63.0,58.0,29.70,North,360,0.0,0.0,84,0.00,,,0.00,,2013-09-27 08:22:00,
2013-09-27 03:42:00,63.0,58.0,29.70,North,360,0.0,0.0,85,0.00,,,0.00,,2013-09-27 08:42:00,
2013-09-27 03:52:00,63.0,58.0,29.70,North,360,0.0,0.0,85,0.00,,,0.00,,2013-09-27 08:52:00,
2013-09-27 04:02:00,63.0,58.0,29.70,North,360,0.0,0.0,85,0.00,,,0.00,,2013-09-27 09:02:00,
2013-09-27 04:20:00,62.0,58.0,29.70,NW,315,0.0,0.0,88,0.00,,,0.00,,2013-09-27 09:20:00,
2013-09-27 04:22:00,63.0,59.0,29.70,North,360,0.0,0.0,87,0.00,,,0.00,,2013-09-27 09:22:00,
2013-09-27 04:44:00,62.0,58.0,29.70,North,360,0.0,0.0,87,0.00,,,0.00,,2013-09-27 09:44:00,
2013-09-27 04:54:00,62.0,58.0,29.70,NW,315,0.0,0.0,88,0.00,,,0.00,,2013-09-27 09:54:00,
2013-09-27 05:03:00,62.0,58.0,29.70,NW,315,0.0,0.0,88,0.00,,,0.00,,2013-09-27 10:03:00,
2013-09-27 05:13:00,62.0,58.0,29.70,NW,315,0.0,0.0,88,0.00,,,0.00,,2013-09-27 10:13:00,
2013-09-27 05:42:00,61.0,58.0,29.70,NW,315,0.0,0.0,89,0.00,,,0.00,,2013-09-27 10:42:00,
2013-09-27 05:53:00,61.0,58.0,29.71,NW,315,0.0,0.0,89,0.00,,,0.00,,2013-09-27 10:53:00,
2013-09-27 06:03:00,61.0,58.0,29.71,NW,315,0.0,0.0,89,0.00,,,0.00,,2013-09-27 11:03:00,
2013-09-27 06:12:00,61.0,58.0,29.71,NW,315,0.0,0.0,89,0.00,,,0.00,,2013-09-27 11:12:00,
2013-09-27 06:22:00,61.0,58.0,29.72,NW,315,0.0,0.0,91,0.00,,,0.00,,2013-09-27 11:22:00,
2013-09-27 06:43:00,62.0,60.0,29.72,NW,315,0.0,0.0,92,0.00,,,0.00,,2013-09-27 11:43:00,
2013-09-27 06:52:00,63.0,61.0,29.72,NW,315,0.0,0.0,92,0.00,,,0.00,,2013-09-27 11:52:00,
2013-09-27 07:12:00,63.0,61.0,29.72,NW,315,0.0,0.0,93,0.00,,,0.00,,2013-09-27 12:12:00,
2013-09-27 07:21:00,63.0,61.0,29.72,NW,315,0.0,0.0,93,0.00,,,0.00,,2013-09-27 12:21:00,
2013-09-27 07:32:00,63.0,61.0,29.72,NW,315,0.0,0.0,93,0.00,,,0.00,,2013-09-27 12:32:00,
2013-09-27 07:42:00,63.0,61.0,29.72,NW,315,0.0,0.0,93,0.00,,,0.00,,2013-09-27 12:42:00,
2013-09-27 07:52:00,63.0,60.0,29.74,NW,315,0.0,0.0,91,0.00,,,0.00,,2013-09-27 12:52:00,
2013-09-27 08:11:00,63.0,60.0,29.74,NW,315,0.0,0.0,91,0.00,,,0.00,,2013-09-27 13:11:00,
2013-09-27 08:22:00,67.0,62.0,29.74,NW,315,0.0,0.0,84,0.00,,,0.00,,2013-09-27 13:22:00,
2013-09-27 09:11:00,72.0,60.0,29.75,NW,315,0.0,1.0,65,0.00,,,0.00,,2013-09-27 14:11:00,
2013-09-27 09:22:00,72.0,59.0,29.75,NW,315,0.0,1.0,63,0.00,,,0.00,,2013-09-27 14:22:00,
2013-09-27 09:52:00,74.0,58.0,29.75,NW,315,0.0,2.0,58,0.00,,,0.00,,2013-09-27 14:52:00,
2013-09-27 10:02:00,74.0,58.0,29.75,NW,315,0.0,2.0,58,0.00,,,0.00,,2013-09-27 15:02:00,
2013-09-27 10:11:00,74.0,58.0,29.75,NW,315,0.0,2.0,58,0.00,,,0.00,,2013-09-27 15:11:00,
2013-09-27 10:21:00,77.0,59.0,29.75,North,360,0.0,1.0,54,0.00,,,0.00,,2013-09-27 15:21:00,
2013-09-27 10:33:00,77.0,59.0,29.75,North,360,0.0,1.0,54,0.00,,,0.00,,2013-09-27 15:33:00,
2013-09-27 10:54:00,80.0,59.0,29.76,North,360,0.0,1.0,49,0.00,,,0.00,,2013-09-27 15:54:00,
2013-09-27 11:13:00,82.0,58.0,29.75,North,360,0.0,2.0,44,0.00,,,0.00,,2013-09-27 16:13:00,
2013-09-27 11:24:00,82.0,58.0,29.75,North,360,0.0,2.0,44,0.00,,,0.00,,2013-09-27 16:24:00,
2013-09-27 11:44:00,83.0,59.0,29.76,NW,315,0.0,1.0,44,0.00,,,0.00,,2013-09-27 16:44:00,
2013-09-27 11:53:00,83.0,59.0,29.76,NW,315,0.0,1.0,44,0.00,,,0.00,,2013-09-27 16:53:00,
2013-09-27 19:52:00,80.0,55.0,29.65,North,360,0.0,0.0,42,0.00,,,0.00,,2013-09-28 00:52:00,
2013-09-27 20:12:00,79.0,55.0,29.66,NW,315,0.0,0.0,44,0.00,,,0.00,,2013-09-28 01:12:00,
2013-09-27 20:42:00,78.0,58.0,29.66,NW,315,0.0,0.0,50,0.00,,,0.00,,2013-09-28 01:42:00,
2013-09-27 20:52:00,77.0,59.0,29.67,North,360,0.0,0.0,53,0.00,,,0.00,,2013-09-28 01:52:00,
2013-09-27 21:03:00,77.0,59.0,29.67,North,360,0.0,0.0,53,0.00,,,0.00,,2013-09-28 02:03:00,
2013-09-27 21:12:00,77.0,59.0,29.67,North,360,0.0,0.0,53,0.00,,,0.00,,2013-09-28 02:12:00,
2013-09-27 21:22:00,77.0,59.0,29.67,NW,315,0.0,1.0,53,0.00,,,0.00,,2013-09-28 02:22:00,
2013-09-27 21:42:00,77.0,58.0,29.67,North,360,0.0,2.0,52,0.00,,,0.00,,2013-09-28 02:42:00,
2013-09-27 21:53:00,77.0,58.0,29.68,North,360,0.0,1.0,52,0.00,,,0.00,,2013-09-28 02:53:00,
2013-09-27 22:12:00,77.0,59.0,29.67,NW,315,0.0,1.0,53,0.00,,,0.00,,2013-09-28 03:12:00,
2013-09-27 22:22:00,77.0,59.0,29.67,NW,315,0.0,1.0,53,0.00,,,0.00,,2013-09-28 03:22:00,
2013-09-27 22:45:00,76.0,58.0,29.68,North,360,0.0,1.0,54,0.00,,,0.00,,2013-09-28 03:45:00,
2013-09-27 22:55:00,76.0,59.0,29.67,NW,315,0.0,0.0,55,0.00,,,0.00,,2013-09-28 03:55:00,
2013-09-27 23:13:00,74.0,58.0,29.68,West,270,0.0,0.0,57,0.00,,,0.00,,2013-09-28 04:13:00,
2013-09-27 23:25:00,74.0,58.0,29.68,West,270,0.0,0.0,57,0.00,,,0.00,,2013-09-28 04:25:00,
2013-09-27 23:43:00,74.0,59.0,29.69,NW,315,0.0,0.0,59,0.00,,,0.00,,2013-09-28 04:43:00,
2013-09-27 23:54:00,72.0,58.0,29.69,NW,315,0.0,0.0,61,0.00,,,0.00,,2013-09-28 04:54:00,